Content
SEND FEEDBACK

Daily
Averages
Monthly
Summary
United States of America

YREKA, CALIFORNIA


Home > North America > United States > California
Elevation: 892 meters     Latitude: 41 43N     Longitude: 122 38W

WEATHER
 
SELECT A DAY
Number of Records: 240,710;   Date Range: 1/1/95 - 7/29/14
 
SHARE

PRINT THIS DATA

[ ← Previous Day ]
WEATHER ALMANAC - 13 FEBRUARY, 2013
[ Next Day → ]
[ °F ]   °C
Weather ElementAverageHighLow
Temperature4.3 °C13.9 °C (3:53 pm)-3.9 °C (2:53 am)
Dewpoint-1.3 °C1.1 °C (6:53 pm)-5.6 °C (3:53 am)
Humidity70.3 %92 % (2:53 am)37 % (3:53 pm)
Barometer1032.5 hPa1034.2 hPa (6:53 am)1029.8 hPa (3:53 pm)
Wind Speed7.1 km/h24.1 km/h (4:53 pm)
Weather ElementAverage
Visibility16.1 km
Wind DirectionNNE (23.9 °)

Weather ElementTotal
Precipitation---
Heating Degree Days13.3 (Base 18.3)
Averaged from 23 records on 13 February, 2013
WEATHER CONDITIONS BREAKOUT
WIND DIRECTION BREAKOUT
WEATHER BY HOUR - 13 FEBRUARY, 2013
[ °F ]   °C
Local TimeTemperatureDewpointHumidityBarometerVisibilityWind DirectionWind SpeedGust SpeedPrecipitationEventsConditions
1:53 AM-1.1 °C-3.3 °C85 %1033.2 hPa16.1 kmNE (40°)16.7 km/hClear
2:53 AM-3.9 °C-5 °C92 %1033.2 hPa16.1 kmCalmClear
3:53 AM-3.9 °C-5.6 °C88 %1033.2 hPa16.1 kmSSW (210°)5.6 km/hMostly Cloudy
4:53 AM-3.3 °C-4.4 °C92 %1033.9 hPa16.1 kmVariable5.6 km/hMostly Cloudy
5:53 AM-1.7 °C-2.8 °C92 %1033.5 hPa16.1 kmCalmOvercast
6:53 AM-2.2 °C-3.3 °C92 %1034.2 hPa16.1 kmCalmOvercast
7:53 AM-1.1 °C-2.8 °C88 %1033.9 hPa16.1 kmCalmOvercast
8:53 AM0 °C-1.7 °C88 %1034.2 hPa16.1 kmENE (60°)5.6 km/hScattered Clouds
9:53 AM2.8 °C-0.6 °C79 %1034.2 hPa16.1 kmCalmClear
10:53 AM5.6 °C0 °C67 %1033.5 hPa16.1 kmCalmClear
11:53 AM7.8 °C0 °C58 %1032.8 hPa16.1 kmCalmClear
12:53 PM11.1 °C0.6 °C49 %1031.5 hPa16.1 kmCalmClear
1:53 PM12.8 °C0.6 °C43 %1030.5 hPa16.1 kmCalmClear
2:53 PM13.3 °C0.6 °C42 %1030.1 hPa16.1 kmCalmClear
3:53 PM13.9 °C-0.6 °C37 %1029.8 hPa16.1 kmNNE (20°)20.4 km/hClear
4:53 PM12.8 °C-0.6 °C40 %1030.1 hPa16.1 kmNorth (10°)24.1 km/hClear
5:53 PM8.9 °C0 °C54 %1030.5 hPa16.1 kmNE (40°)20.4 km/hClear
6:53 PM7.8 °C1.1 °C63 %1030.8 hPa16.1 kmNE (50°)20.4 km/hClear
7:53 PM6.7 °C0.6 °C65 %1031.5 hPa16.1 kmNE (40°)13 km/hClear
8:53 PM4.4 °C0 °C73 %1032.2 hPa16.1 kmNNE (30°)11.1 km/hClear
9:53 PM3.3 °C-0.6 °C76 %1032.2 hPa16.1 kmNE (50°)18.5 km/hClear
10:53 PM3.9 °C0 °C76 %1032.5 hPa16.1 kmCalmClear
11:53 PM1.7 °C-1.7 °C78 %1032.5 hPa16.1 kmCalmClear
Hourly data recorded from KSIY, located 0 kilometers away from Yreka, California







STORIES FROM OUR PARTNERS